Regional Weather Roundup
Issued by NWS

Home | Current Version | Previous Version | Text Only | Print | Product List | Glossary Off
Versions: 1 2 3 4 5 6 7 8 9 10 11 12 13 14 15 16 17 18 19 20 21 22 23 24 25 26 27 28 29 30 31 32 33 34 35 36 37 38 39 40 41 42 43 44 45 46 47 48 49 50

869
ASUS43 KLMK 240410
RWRKY
KENTUCKY REGIONAL WEATHER ROUNDUP
NATIONAL WEATHER SERVICE LOUISVILLE KY
1100 PM EST MON JAN 23 2017

NOTE "FAIR" INDICATES FEW OR NO CLOUDS BELOW 12,000 FEET
WITH NO SIGNIFICANT WEATHER AND/OR OBSTRUCTIONS TO VISIBILITY.

KYZ001>023-026-027-061>063-070>075-240500-
WESTERN AND SOUTH CENTRAL KENTUCKY

CITY           SKY/WX    TMP DP  RH WIND       PRES   REMARKS
PADUCAH        CLOUDY    42  33  70 VRB6      29.85S
HENDERSON      CLOUDY    43  34  70 NW8       29.84R
OWENSBORO      CLOUDY    42  36  79 N9        29.83S
HOPKINSVILLE   CLOUDY    42  35  77 NW6       29.84S
BOWLING GREEN  CLOUDY    43  35  73 NW13      29.83R
GLASGOW        CLOUDY    40  37  87 W7        29.81R
$$

KYZ024-025-028>034-038-045-046-053-240500-
NORTH CENTRAL KENTUCKY

CITY           SKY/WX    TMP DP  RH WIND       PRES   REMARKS
LOUISVILLE/SDF CLOUDY    43  37  79 NW13      29.76S
LOUISVILLE/LOU CLOUDY    43  37  79 W14       29.77R
FORT KNOX      CLOUDY    40  38  92 W10       29.76R WCI  34
$$

KYZ035>037-039>044-047>052-055>060-089>105-240500-
NORTHEAST KENTUCKY

CITY           SKY/WX    TMP DP  RH WIND       PRES   REMARKS
LEXINGTON      CLOUDY    43  40  89 W14G23    29.71R FOG
COVINGTON      CLOUDY    43  41  93 NW15G22   29.69R
FRANKFORT      CLOUDY    43  40  89 W10G16    29.72R FOG
$$

KYZ054-064>069-076>088-106>120-240500-
SOUTHEAST KENTUCKY

CITY           SKY/WX    TMP DP  RH WIND       PRES   REMARKS
JACKSON        LGT RAIN  45  43  93 W8G18     29.63R FOG
LONDON         CLOUDY    43  40  89 W18       29.69R
SOMERSET       CLOUDY    41  41 100 W9        29.76R
MIDDLESBORO    DRIZZLE   45  42  91 W5        29.69R
MONTICELLO     CLOUDY    41  40  96 NW13      29.77R
$$





USA.gov is the U.S. government's official web portal to all federal, state and local government web resources and services.